| time (UTC) | temp F | wind direction | speed knots | gust knots | rain 1hr in | rain 24hr in | rain mn in | humidity % | barometer mb |
| 20260507025827 | 62 | 153 | 2.6 | 4.3 | 0.00 | 0.00 | 0.00 | 42 | 1006.1 |
| 20260507025325 | 63 | 93 | 4.3 | 7.0 | 0.00 | 0.00 | 0.00 | 42 | 1006.1 |
| 20260507024826 | 64 | 66 | 4.3 | 6.1 | 0.00 | 0.00 | 0.00 | 41 | 1006.1 |
| 20260507024327 | 64 | 81 | 1.7 | 4.3 | 0.00 | 0.00 | 0.00 | 42 | 1006.1 |
| 20260507023827 | 64 | 212 | 1.7 | 4.3 | 0.00 | 0.00 | 0.00 | 41 | 1005.8 |
| 20260507023326 | 65 | 127 | 0.0 | 0.9 | 0.00 | 0.00 | 0.00 | 41 | 1005.8 |
| 20260507022826 | 65 | 128 | 2.6 | 4.3 | 0.00 | 0.00 | 0.00 | 41 | 1005.4 |
| 20260507022326 | 65 | 62 | 1.7 | 1.7 | 0.00 | 0.00 | 0.00 | 41 | 1005.4 |
| 20260507021825 | 66 | 67 | 1.7 | 2.6 | 0.00 | 0.00 | 0.00 | 40 | 1005.4 |
| 20260507021326 | 66 | 96 | 2.6 | 5.2 | 0.00 | 0.00 | 0.00 | 40 | 1005.4 |
| 20260507020826 | 66 | 1 | 2.6 | 2.6 | 0.00 | 0.00 | 0.00 | 40 | 1005.4 |
| 20260507020323 | 67 | 72 | 4.3 | 7.8 | 0.00 | 0.00 | 0.00 | 40 | 1005.1 |
| 20260507015824 | 67 | 265 | 0.9 | 1.7 | 0.00 | 0.00 | 0.00 | 39 | 1005.1 |
| 20260507015329 | 67 | 123 | 0.9 | 1.7 | 0.00 | 0.00 | 0.00 | 39 | 1005.1 |
| 20260507014825 | 67 | 112 | 1.7 | 2.6 | 0.00 | 0.00 | 0.00 | 39 | 1004.7 |
| 20260507014324 | 67 | 215 | 0.0 | 0.9 | 0.00 | 0.00 | 0.00 | 39 | 1005.1 |
| 20260507013824 | 66 | 185 | 2.6 | 4.3 | 0.00 | 0.00 | 0.00 | 39 | 1005.1 |
| 20260507013325 | 66 | 310 | 0.9 | 0.9 | 0.00 | 0.00 | 0.00 | 39 | 1005.1 |
| 20260507012823 | 66 | 319 | 2.6 | 6.1 | 0.00 | 0.00 | 0.00 | 39 | 1005.1 |
| 20260507012321 | 66 | 97 | 0.9 | 1.7 | 0.00 | 0.00 | 0.00 | 39 | 1005.1 |
| 20260507011822 | 66 | 88 | 1.7 | 2.6 | 0.00 | 0.00 | 0.00 | 39 | 1004.7 |
| 20260507011324 | 66 | 202 | 0.9 | 0.9 | 0.00 | 0.00 | 0.00 | 40 | 1005.1 |
| 20260507010740 | 66 | 327 | 1.7 | 1.7 | 0.00 | 0.00 | 0.00 | 40 | 1004.7 |
| 20260507010225 | 67 | 189 | 0.9 | 1.7 | 0.00 | 0.00 | 0.00 | 40 | 1005.1 |
| 20260507005724 | 67 | 81 | 2.6 | 4.3 | 0.00 | 0.00 | 0.00 | 40 | 1004.7 |
| 20260507005223 | 68 | 234 | 1.7 | 2.6 | 0.00 | 0.00 | 0.00 | 40 | 1004.7 |
| 20260507004722 | 68 | 57 | 0.9 | 1.7 | 0.00 | 0.00 | 0.00 | 40 | 1004.7 |
| 20260507004220 | 68 | 170 | 1.7 | 2.6 | 0.00 | 0.00 | 0.00 | 40 | 1004.7 |
| 20260507003721 | 68 | 0 | 2.6 | 2.6 | 0.00 | 0.00 | 0.00 | 38 | 1004.7 |
| 20260507003222 | 68 | 166 | 1.7 | 2.6 | 0.00 | 0.00 | 0.00 | 37 | 1004.7 |
| 20260507002722 | 68 | 190 | 0.9 | 0.9 | 0.00 | 0.00 | 0.00 | 38 | 1004.7 |
| 20260507002220 | 69 | 169 | 3.5 | 7.0 | 0.00 | 0.00 | 0.00 | 37 | 1004.4 |
| 20260507001720 | 69 | 227 | 0.0 | 0.9 | 0.00 | 0.00 | 0.00 | 37 | 1004.4 |
| 20260507001222 | 69 | 266 | 0.9 | 0.9 | 0.00 | 0.00 | 0.00 | 37 | 1004.4 |
| 20260507000720 | 69 | 286 | 1.7 | 2.6 | 0.00 | 0.00 | 0.00 | 37 | 1004.4 |
| 20260507000220 | 69 | 301 | 0.9 | 1.7 | 0.00 | 0.00 | 0.00 | 37 | 1004.4 |
| 20260506235719 | 69 | 308 | 0.9 | 1.7 | 0.00 | 0.00 | 0.00 | 37 | 1004.1 |
| 20260506235218 | 70 | 247 | 1.7 | 2.6 | 0.00 | 0.00 | 0.00 | 37 | 1004.1 |
| 20260506234718 | 70 | 188 | 0.0 | 0.0 | 0.00 | 0.00 | 0.00 | 37 | 1004.1 |
| 20260506234218 | 70 | 79 | 0.9 | 1.7 | 0.00 | 0.00 | 0.00 | 37 | 1004.1 |
| 20260506233740 | 70 | 229 | 3.5 | 6.1 | 0.00 | 0.00 | 0.00 | 37 | 1004.4 |
| 20260506233240 | 71 | 264 | 0.9 | 1.7 | 0.00 | 0.00 | 0.00 | 36 | 1004.4 |
| 20260506232740 | 71 | 146 | 0.9 | 1.7 | 0.00 | 0.00 | 0.00 | 35 | 1004.4 |
| 20260506232238 | 71 | 52 | 2.6 | 4.3 | 0.00 | 0.00 | 0.00 | 35 | 1004.1 |
| 20260506231739 | 71 | 132 | 0.0 | 0.9 | 0.00 | 0.00 | 0.00 | 34 | 1004.4 |
| 20260506231240 | 72 | 74 | 1.7 | 2.6 | 0.00 | 0.00 | 0.00 | 34 | 1004.1 |
| 20260506230738 | 72 | 100 | 2.6 | 2.6 | 0.00 | 0.00 | 0.00 | 34 | 1004.1 |
| 20260506230219 | 72 | 110 | 0.0 | 0.9 | 0.00 | 0.00 | 0.00 | 34 | 1004.4 |
| 20260506225717 | 72 | 114 | 3.5 | 7.0 | 0.00 | 0.00 | 0.00 | 34 | 1004.1 |
| 20260506225219 | 72 | 139 | 0.0 | 0.9 | 0.00 | 0.00 | 0.00 | 33 | 1004.1 |
| 20260506224718 | 71 | 152 | 0.0 | 0.9 | 0.00 | 0.00 | 0.00 | 34 | 1004.4 |
| 20260506224219 | 71 | 6 | 0.9 | 1.7 | 0.00 | 0.00 | 0.00 | 33 | 1004.7 |
| 20260506223718 | 71 | 105 | 0.9 | 1.7 | 0.00 | 0.00 | 0.00 | 34 | 1004.4 |
| 20260506223220 | 71 | 177 | 0.0 | 0.9 | 0.00 | 0.00 | 0.00 | 34 | 1004.4 |
| 20260506222716 | 71 | 99 | 0.0 | 1.7 | 0.00 | 0.00 | 0.00 | 33 | 1004.7 |
| 20260506222216 | 72 | 136 | 0.9 | 1.7 | 0.00 | 0.00 | 0.00 | 34 | 1004.7 |
| 20260506221717 | 72 | 128 | 0.9 | 1.7 | 0.00 | 0.00 | 0.00 | 34 | 1004.4 |
| 20260506221141 | 72 | 128 | 2.6 | 2.6 | 0.00 | 0.00 | 0.00 | 34 | 1004.7 |
| 20260506220643 | 72 | 52 | 1.7 | 2.6 | 0.00 | 0.00 | 0.00 | 34 | 1004.7 |
| 20260506220139 | 72 | 89 | 1.7 | 2.6 | 0.00 | 0.00 | 0.00 | 33 | 1004.7 |
| 20260506215637 | 71 | 73 | 1.7 | 2.6 | 0.00 | 0.00 | 0.00 | 32 | 1004.7 |
| 20260506215139 | 71 | 163 | 0.9 | 1.7 | 0.00 | 0.00 | 0.00 | 32 | 1004.7 |
| 20260506214637 | 71 | 87 | 1.7 | 1.7 | 0.00 | 0.00 | 0.00 | 34 | 1004.7 |
| 20260506214142 | 71 | 101 | 1.7 | 2.6 | 0.00 | 0.00 | 0.00 | 34 | 1004.7 |
| 20260506213641 | 71 | 128 | 0.9 | 0.9 | 0.00 | 0.00 | 0.00 | 34 | 1004.7 |
| 20260506213139 | 71 | 53 | 1.7 | 1.7 | 0.00 | 0.00 | 0.00 | 34 | 1004.7 |
| 20260506212643 | 72 | 123 | 0.9 | 0.9 | 0.00 | 0.00 | 0.00 | 33 | 1004.7 |
| 20260506212138 | 72 | 115 | 0.0 | 0.9 | 0.00 | 0.00 | 0.00 | 34 | 1004.7 |
| 20260506211641 | 71 | 165 | 0.9 | 1.7 | 0.00 | 0.00 | 0.00 | 34 | 1005.1 |
| 20260506211139 | 71 | 101 | 0.9 | 1.7 | 0.00 | 0.00 | 0.00 | 33 | 1005.1 |
| 20260506210639 | 71 | 109 | 0.0 | 0.9 | 0.00 | 0.00 | 0.00 | 34 | 1005.1 |
| 20260506210142 | 71 | 153 | 0.0 | 0.9 | 0.00 | 0.00 | 0.00 | 33 | 1005.1 |
| 20260506205641 | 70 | 163 | 0.9 | 0.9 | 0.00 | 0.00 | 0.00 | 34 | 1005.1 |
| 20260506205139 | 70 | 102 | 2.6 | 4.3 | 0.00 | 0.00 | 0.00 | 34 | 1005.1 |
| 20260506204644 | 70 | 201 | 0.0 | 0.0 | 0.00 | 0.00 | 0.00 | 34 | 1005.1 |
| 20260506204138 | 70 | 109 | 2.6 | 4.3 | 0.00 | 0.00 | 0.00 | 35 | 1005.1 |
| 20260506203644 | 71 | 143 | 2.6 | 4.3 | 0.00 | 0.00 | 0.00 | 34 | 1005.1 |
| 20260506203137 | 71 | 194 | 0.0 | 0.9 | 0.00 | 0.00 | 0.00 | 35 | 1005.4 |
| 20260506202637 | 72 | 101 | 2.6 | 5.2 | 0.00 | 0.00 | 0.00 | 34 | 1005.1 |
| 20260506202113 | 72 | 129 | 1.7 | 1.7 | 0.00 | 0.00 | 0.00 | 34 | 1005.1 |
| 20260506201613 | 72 | 122 | 5.2 | 7.0 | 0.00 | 0.00 | 0.00 | 33 | 1005.1 |
| 20260506201114 | 73 | 91 | 0.0 | 2.6 | 0.00 | 0.00 | 0.00 | 33 | 1005.1 |
| 20260506200612 | 73 | 64 | 0.9 | 1.7 | 0.00 | 0.00 | 0.00 | 33 | 1005.1 |
| 20260506200112 | 72 | 230 | 2.6 | 2.6 | 0.00 | 0.00 | 0.00 | 32 | 1005.4 |
| 20260506195614 | 72 | 196 | 0.0 | 0.0 | 0.00 | 0.00 | 0.00 | 32 | 1005.1 |
| 20260506195111 | 71 | 253 | 0.9 | 0.9 | 0.00 | 0.00 | 0.00 | 32 | 1005.1 |
| 20260506194617 | 71 | 297 | 0.0 | 0.0 | 0.00 | 0.00 | 0.00 | 32 | 1005.4 |
| 20260506194113 | 71 | 266 | 1.7 | 1.7 | 0.00 | 0.00 | 0.00 | 33 | 1005.1 |
| 20260506193611 | 71 | 171 | 0.9 | 0.9 | 0.00 | 0.00 | 0.00 | 33 | 1005.4 |
| 20260506193111 | 71 | 280 | 2.6 | 5.2 | 0.00 | 0.00 | 0.00 | 34 | 1005.4 |
| 20260506192611 | 71 | 261 | 0.0 | 0.9 | 0.00 | 0.00 | 0.00 | 34 | 1005.8 |
| 20260506192110 | 71 | 144 | 0.0 | 0.9 | 0.00 | 0.00 | 0.00 | 35 | 1005.8 |
| 20260506191615 | 70 | 107 | 1.7 | 2.6 | 0.00 | 0.00 | 0.00 | 34 | 1005.8 |
| 20260506191116 | 70 | 320 | 1.7 | 1.7 | 0.00 | 0.00 | 0.00 | 33 | 1005.8 |
| 20260506190610 | 69 | 130 | 0.9 | 0.9 | 0.00 | 0.00 | 0.00 | 34 | 1006.1 |
| 20260506190111 | 69 | 238 | 0.0 | 0.9 | 0.00 | 0.00 | 0.00 | 34 | 1005.8 |
| 20260506185538 | 69 | 81 | 2.6 | 2.6 | 0.00 | 0.00 | 0.00 | 34 | 1006.1 |
| 20260506185036 | 68 | 211 | 0.0 | 0.9 | 0.00 | 0.00 | 0.00 | 35 | 1006.1 |
| 20260506184537 | 68 | 208 | 0.0 | 0.9 | 0.00 | 0.00 | 0.00 | 36 | 1006.1 |
| 20260506184038 | 67 | 112 | 0.9 | 1.7 | 0.00 | 0.00 | 0.00 | 36 | 1006.1 |
| 20260506183537 | 67 | 81 | 1.7 | 1.7 | 0.00 | 0.00 | 0.00 | 35 | 1006.4 |
| 20260506183038 | 66 | 103 | 0.0 | 0.9 | 0.00 | 0.00 | 0.00 | 36 | 1006.4 |
| 20260506182536 | 66 | 80 | 0.9 | 1.7 | 0.00 | 0.00 | 0.00 | 36 | 1006.4 |
| 20260506182037 | 66 | 104 | 1.7 | 4.3 | 0.00 | 0.00 | 0.00 | 36 | 1006.4 |
| 20260506181537 | 66 | 93 | 0.9 | 1.7 | 0.00 | 0.00 | 0.00 | 37 | 1006.4 |
| 20260506181037 | 66 | 98 | 2.6 | 4.3 | 0.00 | 0.00 | 0.00 | 37 | 1006.4 |
| 20260506180542 | 65 | 132 | 0.9 | 1.7 | 0.00 | 0.00 | 0.00 | 37 | 1006.8 |
| 20260506180042 | 65 | 139 | 2.6 | 2.6 | 0.00 | 0.00 | 0.00 | 37 | 1006.8 |
| 20260506175544 | 65 | 155 | 0.0 | 0.9 | 0.00 | 0.00 | 0.00 | 37 | 1006.4 |
| 20260506175043 | 64 | 160 | 1.7 | 1.7 | 0.00 | 0.00 | 0.00 | 38 | 1006.8 |
| 20260506174537 | 64 | 111 | 0.9 | 1.7 | 0.00 | 0.00 | 0.00 | 37 | 1006.8 |
| 20260506174038 | 64 | 119 | 0.0 | 0.9 | 0.00 | 0.00 | 0.00 | 38 | 1006.8 |
| 20260506173538 | 63 | 302 | 0.9 | 0.9 | 0.00 | 0.00 | 0.00 | 38 | 1007.1 |
| 20260506173038 | 63 | 295 | 0.9 | 1.7 | 0.00 | 0.00 | 0.00 | 38 | 1007.1 |
| 20260506172525 | 62 | 167 | 0.0 | 0.0 | 0.00 | 0.00 | 0.00 | 37 | 1007.5 |
| 20260506172022 | 62 | 171 | 0.0 | 0.0 | 0.00 | 0.00 | 0.00 | 38 | 1007.5 |
| 20260506171522 | 61 | 95 | 0.9 | 0.9 | 0.00 | 0.00 | 0.00 | 38 | 1007.5 |
| 20260506171021 | 61 | 24 | 0.0 | 0.9 | 0.00 | 0.00 | 0.00 | 37 | 1007.5 |
| 20260506170524 | 60 | 139 | 0.0 | 0.9 | 0.00 | 0.00 | 0.00 | 39 | 1007.5 |
| 20260506170022 | 60 | 163 | 0.0 | 0.9 | 0.00 | 0.00 | 0.00 | 40 | 1007.5 |
| 20260506165521 | 59 | 240 | 0.9 | 1.7 | 0.00 | 0.00 | 0.00 | 40 | 1007.8 |
| 20260506165022 | 59 | 227 | 0.9 | 0.9 | 0.00 | 0.00 | 0.00 | 40 | 1007.5 |
| 20260506164525 | 58 | 108 | 0.0 | 0.9 | 0.00 | 0.00 | 0.00 | 41 | 1007.8 |
| 20260506164022 | 57 | 246 | 0.0 | 0.9 | 0.00 | 0.00 | 0.00 | 41 | 1007.8 |
| 20260506163520 | 55 | 266 | 1.7 | 2.6 | 0.00 | 0.00 | 0.00 | 41 | 1007.8 |
| 20260506163021 | 55 | 207 | 0.0 | 0.0 | 0.00 | 0.00 | 0.00 | 41 | 1007.8 |
| 20260506162521 | 54 | 185 | 0.0 | 0.0 | 0.00 | 0.00 | 0.00 | 43 | 1008.1 |
| 20260506162021 | 53 | 265 | 0.9 | 0.9 | 0.00 | 0.00 | 0.00 | 45 | 1007.8 |
| 20260506161521 | 53 | 278 | 0.9 | 0.9 | 0.00 | 0.00 | 0.00 | 46 | 1008.1 |
| 20260506161020 | 52 | 280 | 1.7 | 1.7 | 0.00 | 0.00 | 0.00 | 48 | 1008.1 |
| 20260506160520 | 51 | 199 | 0.9 | 0.9 | 0.00 | 0.00 | 0.00 | 47 | 1008.1 |
| 20260506160020 | 51 | 248 | 0.9 | 1.7 | 0.00 | 0.00 | 0.00 | 46 | 1008.1 |
| 20260506155521 | 50 | 201 | 0.0 | 0.9 | 0.00 | 0.00 | 0.00 | 46 | 1008.1 |
| 20260506155019 | 49 | 183 | 0.0 | 0.0 | 0.00 | 0.00 | 0.00 | 46 | 1008.5 |
| 20260506154520 | 49 | 247 | 0.9 | 0.9 | 0.00 | 0.00 | 0.00 | 48 | 1008.1 |
| 20260506154022 | 48 | 281 | 1.7 | 1.7 | 0.00 | 0.00 | 0.00 | 51 | 1008.5 |
| 20260506153520 | 48 | 230 | 0.9 | 1.7 | 0.00 | 0.00 | 0.00 | 51 | 1008.5 |
| 20260506153019 | 48 | 261 | 1.7 | 1.7 | 0.00 | 0.00 | 0.00 | 50 | 1008.5 |
| 20260506152519 | 47 | 196 | 0.0 | 0.0 | 0.00 | 0.00 | 0.00 | 49 | 1008.5 |
| 20260506152021 | 46 | 276 | 1.7 | 1.7 | 0.00 | 0.00 | 0.00 | 51 | 1008.5 |
| 20260506151517 | 45 | 173 | 0.0 | 0.0 | 0.00 | 0.00 | 0.00 | 51 | 1008.8 |
| 20260506151019 | 44 | 199 | 0.0 | 0.9 | 0.00 | 0.00 | 0.00 | 51 | 1008.5 |
| 20260506150518 | 44 | 249 | 0.0 | 0.9 | 0.00 | 0.00 | 0.00 | 52 | 1008.5 |
| 20260506150019 | 43 | 333 | 1.7 | 2.6 | 0.00 | 0.00 | 0.00 | 54 | 1008.8 |
| 20260506145518 | 43 | 198 | 0.0 | 0.0 | 0.00 | 0.00 | 0.00 | 54 | 1008.8 |
| 20260506145018 | 42 | 344 | 1.7 | 1.7 | 0.00 | 0.00 | 0.00 | 55 | 1008.8 |
| 20260506144518 | 42 | 223 | 0.9 | 1.7 | 0.00 | 0.00 | 0.00 | 56 | 1008.8 |
| 20260506144017 | 42 | 202 | 0.9 | 0.9 | 0.00 | 0.00 | 0.00 | 58 | 1008.8 |
| 20260506143516 | 42 | 250 | 0.9 | 1.7 | 0.00 | 0.00 | 0.00 | 57 | 1008.8 |
| 20260506143018 | 41 | 239 | 0.9 | 1.7 | 0.00 | 0.00 | 0.00 | 57 | 1008.8 |
| 20260506142516 | 41 | 131 | 0.0 | 0.0 | 0.00 | 0.00 | 0.00 | 58 | 1009.1 |
| 20260506142016 | 40 | 240 | 0.9 | 0.9 | 0.00 | 0.00 | 0.00 | 58 | 1009.1 |
| 20260506141517 | 40 | 264 | 0.9 | 0.9 | 0.00 | 0.00 | 0.00 | 57 | 1009.1 |
| 20260506141016 | 39 | 177 | 0.0 | 0.0 | 0.00 | 0.00 | 0.00 | 56 | 1009.1 |
| 20260506140516 | 38 | 213 | 0.0 | 0.0 | 0.00 | 0.00 | 0.00 | 60 | 1009.1 |
| 20260506140016 | 38 | 198 | 0.0 | 0.0 | 0.00 | 0.00 | 0.00 | 60 | 1009.5 |
| 20260506135516 | 37 | 297 | 0.9 | 0.9 | 0.00 | 0.00 | 0.00 | 61 | 1009.1 |
| 20260506135015 | 37 | 223 | 0.0 | 0.0 | 0.00 | 0.00 | 0.00 | 62 | 1009.5 |
| 20260506134520 | 37 | 280 | 0.9 | 0.9 | 0.00 | 0.00 | 0.00 | 62 | 1009.5 |
| 20260506134015 | 36 | 217 | 0.0 | 0.9 | 0.00 | 0.00 | 0.00 | 63 | 1009.1 |
| 20260506133514 | 36 | 229 | 0.0 | 0.9 | 0.00 | 0.00 | 0.00 | 64 | 1009.1 |
| 20260506133016 | 35 | 242 | 0.9 | 0.9 | 0.00 | 0.00 | 0.00 | 64 | 1009.1 |
| 20260506132514 | 35 | 283 | 0.9 | 0.9 | 0.00 | 0.00 | 0.00 | 64 | 1009.5 |
| 20260506132015 | 35 | 230 | 0.0 | 0.9 | 0.00 | 0.00 | 0.00 | 64 | 1009.5 |
| 20260506131516 | 34 | 231 | 0.0 | 0.9 | 0.00 | 0.00 | 0.00 | 65 | 1009.5 |
| 20260506131017 | 34 | 217 | 0.0 | 0.0 | 0.00 | 0.00 | 0.00 | 65 | 1009.5 |
| 20260506130514 | 34 | 268 | 0.9 | 0.9 | 0.00 | 0.00 | 0.00 | 65 | 1009.5 |
| 20260506130013 | 33 | 239 | 0.0 | 0.9 | 0.00 | 0.00 | 0.00 | 66 | 1009.5 |
| 20260506125512 | 33 | 244 | 0.9 | 0.9 | 0.00 | 0.00 | 0.00 | 66 | 1009.5 |
| 20260506125014 | 33 | 242 | 0.0 | 0.9 | 0.00 | 0.00 | 0.00 | 66 | 1009.5 |
| 20260506124511 | 32 | 269 | 0.9 | 0.9 | 0.00 | 0.00 | 0.00 | 66 | 1009.5 |
| 20260506124014 | 32 | 220 | 0.0 | 0.0 | 0.00 | 0.00 | 0.00 | 67 | 1009.5 |
| 20260506123514 | 32 | 270 | 0.9 | 1.7 | 0.00 | 0.00 | 0.00 | 67 | 1009.5 |
| 20260506123016 | 32 | 239 | 0.0 | 0.0 | 0.00 | 0.00 | 0.00 | 68 | 1009.8 |
| 20260506122516 | 32 | 226 | 0.0 | 0.0 | 0.00 | 0.00 | 0.00 | 68 | 1009.5 |
| 20260506122014 | 32 | 219 | 0.0 | 0.0 | 0.00 | 0.00 | 0.00 | 69 | 1009.8 |
| 20260506121514 | 32 | 235 | 0.0 | 0.0 | 0.00 | 0.00 | 0.00 | 70 | 1009.5 |
| 20260506121011 | 32 | 221 | 0.0 | 0.0 | 0.00 | 0.00 | 0.00 | 71 | 1009.5 |
| 20260506120516 | 32 | 208 | 0.0 | 0.0 | 0.00 | 0.00 | 0.00 | 71 | 1009.8 |
| 20260506120013 | 32 | 208 | 0.0 | 0.0 | 0.00 | 0.00 | 0.00 | 71 | 1009.8 |
| 20260506115514 | 32 | 199 | 0.0 | 0.0 | 0.00 | 0.00 | 0.00 | 71 | 1010.2 |
| 20260506115012 | 32 | 219 | 0.0 | 0.0 | 0.00 | 0.00 | 0.00 | 70 | 1010.2 |
| 20260506114511 | 32 | 216 | 0.0 | 0.0 | 0.00 | 0.00 | 0.00 | 70 | 1010.2 |
| 20260506114012 | 32 | 213 | 0.0 | 0.0 | 0.00 | 0.00 | 0.00 | 70 | 1010.2 |
| 20260506113511 | 32 | 153 | 0.0 | 0.0 | 0.00 | 0.00 | 0.00 | 70 | 1010.2 |
| 20260506113013 | 32 | 222 | 0.0 | 0.0 | 0.00 | 0.00 | 0.00 | 69 | 1010.2 |
| 20260506112513 | 32 | 172 | 0.0 | 0.0 | 0.00 | 0.00 | 0.00 | 68 | 1010.2 |
| 20260506112013 | 33 | 210 | 0.0 | 0.0 | 0.00 | 0.00 | 0.00 | 68 | 1010.2 |
| 20260506111512 | 33 | 212 | 0.0 | 0.0 | 0.00 | 0.00 | 0.00 | 68 | 1010.2 |
| 20260506111015 | 33 | 213 | 0.0 | 0.0 | 0.00 | 0.00 | 0.00 | 67 | 1010.2 |
| 20260506110511 | 33 | 213 | 0.0 | 0.0 | 0.00 | 0.00 | 0.00 | 67 | 1010.5 |
| 20260506105942 | 33 | 185 | 0.0 | 0.0 | 0.00 | 0.00 | 0.00 | 67 | 1010.5 |
| 20260506105439 | 33 | 265 | 0.0 | 0.0 | 0.00 | 0.00 | 0.00 | 66 | 1010.5 |
| 20260506104938 | 33 | 238 | 0.0 | 0.9 | 0.00 | 0.00 | 0.00 | 66 | 1010.5 |
| 20260506104413 | 33 | 217 | 0.9 | 0.9 | 0.00 | 0.00 | 0.00 | 66 | 1010.5 |
| 20260506103913 | 33 | 237 | 0.0 | 0.9 | 0.00 | 0.00 | 0.00 | 65 | 1010.5 |
| 20260506103411 | 33 | 129 | 0.0 | 0.0 | 0.00 | 0.00 | 0.00 | 65 | 1010.5 |
| 20260506102913 | 33 | 151 | 0.0 | 0.9 | 0.00 | 0.00 | 0.00 | 65 | 1010.5 |
| 20260506102412 | 33 | 170 | 0.0 | 0.0 | 0.00 | 0.00 | 0.00 | 64 | 1010.8 |
| 20260506101913 | 33 | 170 | 0.0 | 0.9 | 0.00 | 0.00 | 0.00 | 64 | 1010.8 |
| 20260506101411 | 33 | 130 | 0.0 | 0.0 | 0.00 | 0.00 | 0.00 | 64 | 1010.8 |
| 20260506100909 | 33 | 235 | 0.0 | 0.9 | 0.00 | 0.00 | 0.00 | 64 | 1011.2 |
| 20260506100341 | 33 | 132 | 0.0 | 0.9 | 0.00 | 0.00 | 0.00 | 64 | 1010.8 |
| 20260506095829 | 33 | 188 | 0.0 | 0.0 | 0.00 | 0.00 | 0.00 | 64 | 1010.8 |
| 20260506095330 | 33 | 95 | 0.9 | 0.9 | 0.00 | 0.00 | 0.00 | 64 | 1011.2 |
| 20260506094829 | 33 | 224 | 0.0 | 0.9 | 0.00 | 0.00 | 0.00 | 64 | 1011.2 |
| 20260506094329 | 34 | 231 | 0.0 | 0.0 | 0.00 | 0.00 | 0.00 | 64 | 1011.2 |
| 20260506093829 | 34 | 262 | 0.0 | 0.9 | 0.00 | 0.00 | 0.00 | 63 | 1011.5 |
| 20260506093328 | 34 | 168 | 0.0 | 0.0 | 0.00 | 0.00 | 0.00 | 63 | 1011.5 |
| 20260506092832 | 34 | 212 | 0.0 | 0.9 | 0.00 | 0.00 | 0.00 | 63 | 1011.5 |
| 20260506092330 | 34 | 246 | 0.0 | 0.9 | 0.00 | 0.00 | 0.00 | 63 | 1011.5 |
| 20260506091827 | 34 | 228 | 0.0 | 0.0 | 0.00 | 0.00 | 0.00 | 63 | 1011.9 |
| 20260506091328 | 34 | 141 | 0.0 | 0.0 | 0.00 | 0.00 | 0.00 | 62 | 1011.9 |
| 20260506090827 | 35 | 189 | 0.9 | 0.9 | 0.00 | 0.00 | 0.00 | 63 | 1011.9 |
| 20260506090328 | 35 | 255 | 0.0 | 0.9 | 0.00 | 0.00 | 0.00 | 62 | 1011.9 |
| 20260506085830 | 35 | 169 | 0.0 | 0.0 | 0.00 | 0.00 | 0.00 | 62 | 1011.9 |
| 20260506085328 | 35 | 267 | 0.9 | 0.9 | 0.00 | 0.00 | 0.00 | 61 | 1012.2 |
| 20260506084827 | 35 | 193 | 0.0 | 0.0 | 0.00 | 0.00 | 0.00 | 61 | 1012.2 |
| 20260506084327 | 35 | 340 | 0.0 | 0.9 | 0.00 | 0.00 | 0.00 | 61 | 1012.2 |
| 20260506083825 | 35 | 250 | 0.9 | 0.9 | 0.00 | 0.00 | 0.00 | 60 | 1012.2 |
| 20260506083326 | 35 | 70 | 0.9 | 0.9 | 0.00 | 0.00 | 0.00 | 60 | 1012.2 |
| 20260506082826 | 35 | 131 | 0.0 | 0.9 | 0.00 | 0.00 | 0.00 | 60 | 1012.2 |
| 20260506082328 | 36 | 84 | 0.0 | 0.9 | 0.00 | 0.00 | 0.00 | 59 | 1012.5 |
| 20260506081827 | 36 | 85 | 1.7 | 1.7 | 0.00 | 0.00 | 0.00 | 59 | 1012.5 |
| 20260506081325 | 36 | 110 | 0.9 | 1.7 | 0.00 | 0.00 | 0.00 | 59 | 1012.5 |
| 20260506080826 | 36 | 72 | 0.0 | 0.9 | 0.00 | 0.00 | 0.00 | 58 | 1012.2 |
| 20260506080328 | 36 | 130 | 0.9 | 1.7 | 0.00 | 0.00 | 0.00 | 58 | 1012.5 |
| 20260506073323 | 36 | 124 | 0.0 | 0.0 | 0.00 | 0.00 | 0.00 | 57 | 1012.9 |
| 20260506072822 | 36 | 43 | 0.0 | 0.9 | 0.00 | 0.00 | 0.00 | 57 | 1012.9 |
| 20260506072325 | 37 | 171 | 0.0 | 0.0 | 0.00 | 0.00 | 0.00 | 57 | 1012.9 |
| 20260506071825 | 37 | 78 | 0.9 | 1.7 | 0.00 | 0.00 | 0.00 | 57 | 1012.9 |
| 20260506071323 | 37 | 277 | 0.0 | 0.9 | 0.00 | 0.00 | 0.00 | 57 | 1013.2 |
| 20260506070824 | 37 | 93 | 0.0 | 1.7 | 0.00 | 0.00 | 0.00 | 57 | 1012.9 |
| 20260506070322 | 37 | 181 | 0.0 | 0.0 | 0.00 | 0.00 | 0.00 | 57 | 1012.9 |
| 20260506062322 | 38 | 201 | 0.0 | 0.0 | 0.00 | 0.00 | 0.00 | 55 | 1013.9 |
| 20260506061824 | 38 | 140 | 0.9 | 0.9 | 0.00 | 0.00 | 0.00 | 54 | 1013.9 |
| 20260506061322 | 39 | 221 | 0.9 | 0.9 | 0.00 | 0.00 | 0.00 | 54 | 1013.5 |
| 20260506060820 | 39 | 110 | 0.9 | 1.7 | 0.00 | 0.00 | 0.00 | 53 | 1013.5 |
| 20260506060323 | 39 | 109 | 0.0 | 0.0 | 0.00 | 0.00 | 0.00 | 53 | 1013.5 |
| 20260506051318 | 41 | 160 | 0.9 | 0.9 | 0.00 | 0.00 | 0.00 | 52 | 1013.9 |
| 20260506050818 | 41 | 86 | 1.7 | 2.6 | 0.00 | 0.00 | 0.00 | 51 | 1013.9 |
| 20260506050319 | 41 | 156 | 0.9 | 1.7 | 0.00 | 0.00 | 0.00 | 51 | 1014.2 |
| 20260506044819 | 42 | 108 | 0.0 | 0.0 | 0.00 | 0.00 | 0.00 | 51 | 1014.2 |
| 20260506044318 | 42 | 137 | 0.9 | 1.7 | 0.00 | 0.00 | 0.00 | 51 | 1014.2 |
| 20260506043817 | 42 | 156 | 0.0 | 0.9 | 0.00 | 0.00 | 0.00 | 50 | 1014.2 |
| 20260506043319 | 42 | 140 | 0.0 | 0.0 | 0.00 | 0.00 | 0.00 | 51 | 1014.2 |
| 20260506042818 | 42 | 93 | 0.9 | 0.9 | 0.00 | 0.00 | 0.00 | 50 | 1014.2 |
| 20260506042316 | 42 | 107 | 0.9 | 0.9 | 0.00 | 0.00 | 0.00 | 50 | 1014.6 |
| 20260506041816 | 43 | 138 | 0.0 | 0.0 | 0.00 | 0.00 | 0.00 | 50 | 1014.6 |
| 20260506041317 | 43 | 121 | 0.0 | 0.0 | 0.00 | 0.00 | 0.00 | 50 | 1014.6 |
| 20260506040742 | 43 | 153 | 0.0 | 0.0 | 0.00 | 0.00 | 0.00 | 50 | 1014.6 |
| 20260506040238 | 43 | 151 | 0.0 | 0.0 | 0.00 | 0.00 | 0.00 | 49 | 1014.6 |
| 20260506035743 | 44 | 134 | 0.9 | 0.9 | 0.00 | 0.00 | 0.00 | 49 | 1014.6 |
| 20260506035239 | 44 | 121 | 1.7 | 2.6 | 0.00 | 0.00 | 0.00 | 48 | 1014.6 |
| 20260506034738 | 44 | 106 | 0.9 | 1.7 | 0.00 | 0.00 | 0.00 | 48 | 1014.9 |
| 20260506034239 | 44 | 97 | 1.7 | 2.6 | 0.00 | 0.00 | 0.00 | 48 | 1014.6 |
| 20260506033740 | 44 | 167 | 0.0 | 0.0 | 0.00 | 0.00 | 0.00 | 47 | 1014.6 |
| 20260506033241 | 45 | 156 | 0.0 | 0.9 | 0.00 | 0.00 | 0.00 | 47 | 1014.6 |
| 20260506032742 | 45 | 119 | 1.7 | 1.7 | 0.00 | 0.00 | 0.00 | 47 | 1014.6 |
| 20260506032235 | 45 | 137 | 0.0 | 0.9 | 0.00 | 0.00 | 0.00 | 47 | 1014.6 |
| 20260506031716 | 45 | 105 | 1.7 | 1.7 | 0.00 | 0.00 | 0.00 | 46 | 1014.2 |
| 20260506031214 | 46 | 150 | 0.9 | 1.7 | 0.00 | 0.00 | 0.00 | 46 | 1014.6 |
| 20260506030713 | 46 | 90 | 0.0 | 1.7 | 0.00 | 0.00 | 0.00 | 45 | 1014.6 |
| 20260506030216 | 46 | 117 | 1.7 | 1.7 | 0.00 | 0.00 | 0.00 | 45 | 1014.6 |